Regional Weather Roundup
Issued by NWS Portland, ME

Home | Current Version | Previous Version | Text Only | Print | Product List | Glossary On
Versions: 1 2 3 4 5 6 7 8 9 10 11 12 13 14 15 16 17 18 19 20 21 22 23 24 25 26 27 28 29 30 31 32 33 34 35 36 37 38 39 40 41 42 43 44 45 46 47 48 49 50
000
ASUS41 KGYX 221510
RWRGYX
WEATHER ROUNDUP FOR MAINE AND NEW HAMPSHIRE
NATIONAL WEATHER SERVICE GRAY ME
1100 AM EDT MON MAY 22 2017

MEZ002-005-006-010-012-015-018-020-021-024-026-027-029-221600-
MAINE

CITY           SKY/WX    TMP DP  RH WIND       PRES   REMARKS
PORTLAND       CLOUDY    54  48  80 S6        30.19F
SANFORD        CLOUDY    53  46  77 VRB5      30.19F
BAR HARBOR     CLOUDY    57  39  51 S9        30.22F
WISCASSET      CLOUDY    54  49  83 S5        30.22S
ROCKLAND       CLOUDY    54  42  64 E6        30.20F
FRYEBURG       CLOUDY    52  45  77 SW5       30.17F
LEWISTONAUBURN CLOUDY    53  46  77 SW9       30.18F
AUGUSTA        CLOUDY    52  44  74 VRB5      30.19F
WATERVILLE     CLOUDY    55  42  61 VRB5      30.16F
BANGOR         CLOUDY    56  40  55 S12       30.20F
GREENVILLE       N/A     51  41  68 VRB6      30.13F
MILLINOCKET    CLOUDY    56  41  57 S5        30.19F
HOULTON        CLOUDY    58  42  55 SW13      30.16F
PRESQUE ISLE   CLOUDY    58  39  49 SW10      30.17F
FRENCHVILLE    CLOUDY    53  36  52 S5        30.14F
CARIBOU        CLOUDY    57  41  55 CALM      30.15F
$$

NHZ002-005-008-009-011-012-014-221600-
NEW HAMPSHIRE

CITY           SKY/WX    TMP DP  RH WIND       PRES   REMARKS
PORTSMOUTH     CLOUDY    54  46  75 S9        30.18F
ROCHESTER      CLOUDY    53  45  74 S7        30.18F
NASHUA         CLOUDY    52  46  80 VRB6      30.18F
MANCHESTER     CLOUDY    52  42  69 S13       30.16F
CONCORD        CLOUDY    51  47  86 VRB5      30.16F
LACONIA        CLOUDY    51  42  71 S7        30.16F
PLYMOUTH       CLOUDY    51  45  78 CALM      30.15F
BERLIN         CLOUDY    51  44  77 SE9       30.10F
WHITEFIELD     CLOUDY    52  44  74 W3        30.10S
JAFFREY        CLOUDY    50  44  80 S9        30.15F
KEENE          CLOUDY    51  45  79 S6        30.15F
LEBANON        CLOUDY    52  44  74 S8        30.12F
MT WASHINGTON  FOG       37  37 100 W22         N/A  VSB 0
$$

VTZ005-007-008-221600-
VERMONT

CITY           SKY/WX    TMP DP  RH WIND       PRES   REMARKS
ST JOHNSBURY     N/A     50  44  80 MISG      30.08F
MONTPELIER     CLOUDY    47  45  93 S15       30.11F
BURLINGTON     CLOUDY    54  42  64 S12G20    30.04F
$$

MAZ007-012-024-CTZ003-RIZ002-NYZ038-NYZ072-221600-
SOUTHERN NEW ENGLAND AND NY

CITY           SKY/WX    TMP DP  RH WIND       PRES   REMARKS
BOSTON         LGT RAIN  52  40  63 S8G18     30.21S
WORCESTER      LGT RAIN  46  41  81 SW14      30.17F
NANTUCKET      CLOUDY    53  42  66 SE13      30.21F
PROVIDENCE     CLOUDY    56  47  71 S9        30.19F
HARTFORD       CLOUDY    56  42  59 S12       30.15F
ALBANY         CLOUDY    57  45  64 S10G21    30.06F
NEW YORK CITY  LGT RAIN  57  53  86 SE12      30.12F FOG
$$

ANZ081-ANZ082-ANZ150-NHZ014-MEZ023>029-221600-
COASTAL MARINE OBSERVATIONS

STATION/POSITION TIME  TEMP    WIND        PRES    WAVE
                       AIR SEA DIR/SP/G            HT/PER
                 (UTC) (F)     (DEG/KT/KT) (MB)    (FT/S)
MOUNT DESERT ROC 1500   50                 1023.6F
ISLE OF SHOALS   1400   52     180/  6/  7 1022.7F
JEFFREYS LEDGE   1406      51                N/A     1/ 8
CASHES LEDGE BUO 1450   52 48              1023.4R   1/ 4
GEORGES BANK BUO 1350   49 46              1025.2    2/ 7
$$

.............KEY..............
   WCI - WIND CHILL
   TC  - TEMPERATURE IN CELSIUS
   VSB - VISIBILITY IN MILES
   HX  - HEAT INDEX
   FAIR- INDICATES FEW OR NO CLOUDS BELOW 12,000 FT, WITH NO
         SIGNIFICANT WEATHER AND/OR OBSTRUCTIONS TO VISIBILITY.





USA.gov is the U.S. government's official web portal to all federal, state and local government web resources and services.